Regional Weather Roundup
Issued by NWS

Home | Current Version | Previous Version | Graphics & Text | Print | Product List | Glossary On
Versions: 1 2 3 4 5 6 7 8 9 10 11 12 13 14 15 16 17 18 19 20 21 22 23 24 25 26 27
000
ASUS45 KBOU 301307
RWRCO

WEATHER ROUNDUP FOR COLORADO
NATIONAL WEATHER SERVICE DENVER/BOULDER CO
700 AM MDT SAT APR 30 2016

NOTE: "FAIR" INDICATES FEW OR NO CLOUDS BELOW 12000 FEET WITH NO
SIGNIFICANT WEATHER AND/OR OBSTRUCTIONS TO VISIBILITY.

COZ001>005-013-030-031-301400-
...NORTHWEST COLORADO...

CITY           SKY/WX    TMP DP  RH WIND       PRES   REMARKS
CRAIG          MIX PCPN  34  32  92 W6        29.87S WCI  29
HAYDEN         CLOUDY    30  28  93 E5        29.87S VSB 1   WCI  25
MEEKER         LGT SNOW  34  31  88 SW5       29.88R FOG     WCI  30
MOUNT WERNER   NOT AVBL
STEAMBOAT SPGS CLOUDY    31  30  96 CALM      29.87R
WALDEN         MOCLDY    27  21  80 N12       29.55R WCI  16
$$

COZ006>008-011-301400-
...WEST CENTRAL VALLEYS...

CITY           SKY/WX    TMP DP  RH WIND       PRES   REMARKS
GRAND JUNCTION CLOUDY    40  39  97 NW5       29.86R
MONTROSE       CLOUDY    41  36  82 NW5       29.87R
EAGLE          MOCLDY    34  34 100 CALM      29.87R
RIFLE          FAIR      39  30  70 CALM      29.87R
DELTA          NOT AVBL
NUCLA          NOT AVBL
$$

COZ017>023-064>068-301400-
...SOUTHWEST COLORADO...

CITY           SKY/WX    TMP DP  RH WIND       PRES   REMARKS
DURANGO        FAIR      25  22  88 CALM      29.86R
CORTEZ         FAIR      30  27  88 CALM      29.87R
PAGOSA SPRINGS FOG       32  32 100 CALM      29.88R VSB 3/4
TELLURIDE      CLOUDY    30  30 100 CALM      29.90R FOG
WOLF CREEK PAS FOG       18  18 100 SW12      29.92R VSB 1/4 WCI   5
$$

COZ009-010-012-014-032>034-037-058>063-301400-
...CENTRAL COLORADO...

CITY           SKY/WX    TMP DP  RH WIND       PRES   REMARKS
ASPEN          CLOUDY    33  31  92 CALM      29.84S
BUENA VISTA    FOG       23  21  93 CALM      29.84R VSB<1/4
COPPER MTN     NOT AVBL
BERTHOUD PASS  SNOW      12   3  67 N18       29.84R VSB<1/4 WCI  -5
COTTONWOOD PAS FAIR      28  27  93 CALM      29.83R
GUNNISON       CLOUDY    34  28  80 N5        29.86R WCI  30
KREMMLING      FLURRIES  32  23  69 NW9       29.88R WCI  24
LEADVILLE      CLOUDY    24  20  84 W6        29.83R WCI  17
MONARCH PASS   CLOUDY    21  19  93 MISG      29.96R
SALIDA         CLOUDY    30  28  93 CALM      29.92R
SUNLIGHT       FOG      N/A N/A N/A SW3       29.91R VSB 1/4
WILKERSON PASS CLOUDY   N/A N/A N/A N12G18    29.85S
$$

COZ069>075-301400-
...SAN LUIS VALLEY/SANGRE DE CRISTO MOUNTAINS...

CITY           SKY/WX    TMP DP  RH WIND       PRES   REMARKS
ALAMOSA        CLOUDY    32  30  92 CALM      29.83R
LA VETA PASS   SNOW      27  25  93 MISG      29.85R VSB 1/4
SAGUACHE       NOT AVBL
$$

COZ035-036-038>040-301400-
...NORTHERN COLORADO FRONT RANGE...

CITY           SKY/WX    TMP DP  RH WIND       PRES   REMARKS
DENVER INTL AP LGT SNOW  31  28  89 N12       29.88R VSB 1   WCI  22
DMNS CITY PARK   N/A     33  32  96 N6G14     29.90R WCI  27
AURORA         LGT SNOW  32  32 100 N9        29.89R FOG     WCI  24
FRONT RANGE AP LGT SNOW  30  30 100 NW12      29.89  WCI  21
ERIE MUNI ARPT CLOUDY    34  33  96 N5        29.91R WCI  30
BOULDER MUN AP CLOUDY    34  34 100 NE7       29.90R WCI  28
CENTENNIAL     LGT SNOW  31  30  96 N12       29.88R FOG     WCI  22
BROOMFIELD     CLOUDY    32  32 100 N12       29.90R WCI  23
FORT COLLINS   FAIR      34  30  86 N12       29.91R WCI  25
LONGMONT       CLOUDY    37  34  89 N3        29.92S FOG
$$

COZ041-046-047-076>085-087-088-301400-
...PIKES PEAK/PALMER DIVIDE AND SOUTHERN FOOTHILLS...

CITY           SKY/WX    TMP DP  RH WIND       PRES   REMARKS
COLO. SPRINGS  CLOUDY    33  25  72 N15       29.85R WCI  23
A. F. ACADEMY  MIX PCPN  30  28  93 N21       29.83R WCI  17
SCHRIEVER AFB  NOT AVBL
ELLICOTT       NOT AVBL
FALCON         CLOUDY    29  27  90 N17G25    29.82S WCI  17
FORT CARSON    NOT AVBL
LIMON          LGT SNOW  29  28  96 NW20      29.84R FOG     WCI  16
MONUMENT HILL  CLOUDY    27  27 100 NW16      29.86R FOG     WCI  14
TRINIDAD       CLOUDY    29  27  92 W8        29.86R WCI  21
$$

COZ042>045-048>051-090-091-301400-
...NORTHEAST COLORADO...

CITY           SKY/WX    TMP DP  RH WIND       PRES   REMARKS
GREELEY ARPT   PTSUNNY   34  30  86 N14       29.91R WCI  24
AKRON          SNOW      30  29  96 N20       29.84R VSB 1/2 WCI  17
BURLINGTON     CLOUDY    33  30  88 N16       29.81R FOG     WCI  23
WRAY           NOT AVBL
STERLING       CLOUDY    34  32  93 N10       29.86R WCI  26
HOLYOKE        NOT AVBL
FORT MORGAN    LGT SNOW  32  31  95 NW13      29.89R WCI  23
$$

COZ086-089-092>099-301400-
...SOUTHEAST COLORADO...

CITY           SKY/WX    TMP DP  RH WIND       PRES   REMARKS
PUEBLO         CLOUDY    37  33  85 W3        29.86R
LA JUNTA       CLOUDY    39  36  89 W8        29.86R
LAMAR          FAIR      36  34  92 W12       29.84R
SPRINGFIELD      N/A     36  32  85 NW23G30   29.81S
$$




USA.gov is the U.S. government's official web portal to all federal, state and local government web resources and services.